Regional Weather Roundup
Issued by NWS

Home | Current Version | Previous Version | Graphics & Text | Print | Product List | Glossary On
Versions: 1 2 3 4 5 6 7 8 9 10 11 12 13 14 15 16 17 18 19 20 21 22 23 24 25 26 27 28 29 30 31 32 33 34 35 36 37 38 39 40 41 42 43 44 45 46 47 48 49 50
000
ASUS43 KOAX 221310
RWRNE

WEATHER ROUNDUP FOR NEBRASKA
NATIONAL WEATHER SERVICE OMAHA NE
800 AM CDT FRI AUG 22 2014

NOTES: SATELLITE DATA IS BEING USED TO AUGMENT CLOUD COVER ABOVE
       12000 FEET.
       "FAIR" INDICATES FEW OR NO CLOUDS BELOW 12,000 FEET WITH NO
       SIGNIFICANT WEATHER AND/OR OBSTRUCTIONS TO VISIBILITY.

  * THESE STATIONS DO NOT REPORT WEATHER SUCH AS RAIN...SNOW OR FOG.

NEZ001>004-019>022-054>056-221400-
NEBRASKA PANHANDLE

CITY           SKY/WX    TMP DP  RH WIND       PRES   REMARKS
SCOTTSBLUFF    CLOUDY    62  54  74 CALM      30.11R
ALLIANCE       CLOUDY    63  52  67 W5        30.10R
CHADRON        CLOUDY    60  54  80 CALM      30.08R
KIMBALL        CLOUDY    61  57  85 S5        30.13F
SIDNEY         CLOUDY    62  59  90 S6        30.13F
$$

NEZ057>060-069>072-079>082-221400-
SOUTHWEST NEBRASKA

CITY           SKY/WX    TMP DP  RH WIND       PRES   REMARKS
NORTH PLATTE   CLOUDY    66  63  90 CALM      30.01F
IMPERIAL       LGT RAIN  69  59  70 N15       30.05S
LEXINGTON      MOSUNNY   69  68  97 CALM      29.97S FOG
MCCOOK         PTSUNNY   69  67  93 NW9       30.00R FOG
OGALLALA       CLOUDY    67  58  74 W10       30.06F
$$

NEZ005>010-023>029-035>040-094-221400-
NORTH CENTRAL NEBRASKA

CITY           SKY/WX    TMP DP  RH WIND       PRES   REMARKS
VALENTINE      CLOUDY    66  62  87 CALM      30.02R
AINSWORTH      CLOUDY    64  63  95 CALM      30.03S
BROKEN BOW     PTSUNNY   71  67  87 NW3       29.98S
O`NEILL        MOSUNNY   69  68  97 CALM      29.98R
ORD            SUNNY     70  67  90 NW3       29.95R
THEDFORD       CLOUDY    66  64  94 CALM      30.04R
$$

NEZ041-046>049-061>064-073>077-083>087-221400-
SOUTH CENTRAL NEBRASKA

CITY           SKY/WX    TMP DP  RH WIND       PRES   REMARKS
GRAND ISLAND   SUNNY     71  67  87 N7        29.95R
AURORA         SUNNY     71  71  99 NE3       29.93R
HASTINGS       SUNNY     70  66  87 CALM      29.93S
HEBRON         SUNNY     71  67  84 E3        29.91R
HOLDREGE       SUNNY     67  65  94 CALM      29.96R FOG
KEARNEY *      PTSUNNY   68  66  94 N5        29.96R
YORK           SUNNY     68 N/A N/A NE3       29.94R
$$

NEZ011>018-030>034-042>045-221400-
NORTHEAST NEBRASKA

CITY           SKY/WX    TMP DP  RH WIND       PRES   REMARKS
NORFOLK        SUNNY     73  69  87 NW3       29.93R
ALBION         SUNNY     71  68  90 CALM      29.93F
BLAIR          MOSUNNY   76  73  90 CALM      29.91S
FREMONT        SUNNY     73  71  92 CALM      29.91F
TEKAMAH        SUNNY     73  70  90 W3        29.91R
WAYNE          SUNNY     71  69  95 N3        29.93R
$$

NEZ050>053-065>068-078-088>093-221400-
SOUTHEAST NEBRASKA

CITY           SKY/WX    TMP DP  RH WIND       PRES   REMARKS
LINCOLN        SUNNY     75  72  90 N3        29.91R
OMAHA EPPLEY   PTSUNNY   75  70  84 CALM      29.90S
BEATRICE       SUNNY     76  70  83 SE6       29.90S
FALLS CITY     CLOUDY    79  73  82 S8        29.91S
NEBRASKA CITY  PTSUNNY   73  73 100 S6        29.91R
PLATTSMOUTH    MOSUNNY   72  70  93 NE3       29.90S
$$

NEZ044-045-051>053-067-221400-
OMAHA AREA

CITY           SKY/WX    TMP DP  RH WIND       PRES   REMARKS
OMAHA EPPLEY   PTSUNNY   75  70  84 CALM      29.90S
BLAIR          MOSUNNY   76  73  90 CALM      29.91S
FREMONT        SUNNY     73  71  92 CALM      29.91F
MILLARD        SUNNY     76  73  91 CALM      29.90R
OFFUTT AFB     MOSUNNY   73  73 100 NE5       29.90R
PLATTSMOUTH    MOSUNNY   72  70  93 NE3       29.90S
WAHOO          FAIR      72  69  90 CALM      29.91S
$$



USA.gov is the U.S. government's official web portal to all federal, state and local government web resources and services.